{"data":{"norad_id":65780,"epoch":"2026-09-20T12:54:34.447680Z","epoch_age_seconds":143426,"freshness":"FRESH","line1":"1 65780U 25217U   26263.53789870  .00001724  00000+0  25513-3 0  9991","line2":"2 65780  51.8960 263.8671 0000732  51.8651 308.2377 14.79936087 53695","mean_motion":14.79936087,"eccentricity":7.32e-5,"inclination_deg":51.896,"raan_deg":263.8671,"arg_perigee_deg":51.8651,"mean_anomaly_deg":308.2377,"bstar":0.00025513,"rev_number":5369,"period_min":97.301499209945,"perigee_km":629.01292337476,"apogee_km":630.03884522103,"semimajor_km":7007.6628842979,"source":"CELESTRAK","updated_at":"2026-09-21T09:00:15.561144Z"}}